QPF
0.04 0.03 0.03 0.04 0.05 0.07 0.06 0.06 0.07 0.06 0.06 0.07 0.07 0.08 0.07 0.07 0.06 0.06 0.06 0.07 0.07 0.07 0.08 0.07 0.07 0.07 0.07 0.07 0.06 0.07 0.08 0.10 0.12 0.10 0.09 0.07 0.07 0.06 0.07 0.07 0.06 0.07 0.07
0.04 0.02 0.03 0.03 0.05 0.06 0.06 0.07 0.07 0.06 0.05 0.05 0.05 0.06 0.06 0.06 0.07 0.06 0.06 0.06 0.06 0.06 0.06 0.06 0.06 0.06 0.08 0.08 0.08 0.08 0.09 0.11 0.12 0.13 0.14 0.12 0.10 0.08 0.08 0.08 0.08 0.07 0.05
0.03 0.02 0.03 0.03 0.04 0.04 0.05 0.04 0.03 0.03 0.03 0.03 0.03 0.04 0.06 0.07 0.08 0.06 0.06 0.06 0.07 0.06 0.06 0.07 0.08 0.08 0.09 0.10 0.11 0.11 0.11 0.10 0.12 0.12 0.14 0.13 0.11 0.09 0.09 0.09 0.09 0.07 0.06
0.01 0.02 0.02 0.02 0.03 0.04 0.04 0.03 0.03 0.03 0.03 0.04 0.05 0.04 0.05 0.07 0.08 0.08 0.07 0.08 0.09 0.08 0.08 0.07 0.08 0.07 0.07 0.08 0.08 0.09 0.09 0.09 0.11 0.12 0.13 0.12 0.11 0.09 0.09 0.08 0.08 0.07 0.06
0.01 0.01 0.02 0.02 0.02 0.03 0.02 0.02 0.03 0.05 0.05 0.06 0.06 0.05 0.05 0.06 0.07 0.08 0.08 0.09 0.09 0.10 0.09 0.08 0.08 0.07 0.07 0.07 0.05 0.06 0.06 0.08 0.09 0.10 0.10 0.09 0.08 0.06 0.05 0.06 0.06 0.05 0.04
0.01 0.01 0.01 0.01 0.01 0.02 0.02 0.02 0.03 0.04 0.06 0.06 0.05 0.05 0.06 0.08 0.10 0.11 0.10 0.09 0.09 0.09 0.09 0.07 0.06 0.06 0.07 0.06 0.06 0.06 0.07 0.08 0.08 0.08 0.07 0.06 0.06 0.07 0.06 0.05 0.05 0.05 0.04
0.01 0.01 0.01 0.01 0.02 0.02 0.01 0.01 0.02 0.03 0.03 0.04 0.04 0.05 0.07 0.10 0.12 0.11 0.12 0.12 0.12 0.10 0.09 0.07 0.07 0.07 0.07 0.06 0.08 0.10 0.12 0.13 0.13 0.11 0.10 0.09 0.09 0.09 0.10 0.09 0.08 0.07 0.06
0.01 0.01 0.02 0.01 0.02 0.01 0.01 0.01 0.02 0.03 0.04 0.04 0.04 0.04 0.04 0.07 0.09 0.09 0.09 0.09 0.10 0.10 0.09 0.08 0.08 0.08 0.08 0.07 0.08 0.10 0.12 0.14 0.14 0.13 0.12 0.11 0.11 0.11 0.10 0.09 0.07 0.07 0.07
0.02 0.02 0.02 0.02 0.02 0.03 0.03 0.03 0.03 0.04 0.04 0.05 0.06 0.05 0.03 0.03 0.04 0.05 0.05 0.05 0.05 0.06 0.07 0.07 0.07 0.08 0.08 0.07 0.07 0.09 0.10 0.11 0.11 0.11 0.10 0.10 0.09 0.07 0.06 0.05 0.05 0.05 0.04
0.02 0.03 0.04 0.04 0.04 0.05 0.03 0.03 0.03 0.04 0.04 0.04 0.04 0.04 0.04 0.05 0.04 0.04 0.04 0.05 0.06 0.05 0.05 0.05 0.06 0.07 0.09 0.09 0.09 0.10 0.10 0.10 0.09 0.08 0.07 0.06 0.05 0.05 0.05 0.04 0.04 0.04 0.04
0.03 0.03 0.03 0.03 0.03 0.04 0.03 0.03 0.04 0.04 0.03 0.03 0.03 0.04 0.04 0.05 0.04 0.04 0.04 0.04 0.05 0.05 0.05 0.05 0.06 0.06 0.07 0.07 0.08 0.08 0.07 0.06 0.05 0.05 0.05 0.05 0.04 0.04 0.04 0.03 0.03 0.03 0.03
0.03 0.02 0.01 0.02 0.02 0.02 0.03 0.03 0.03 0.03 0.04 0.04 0.04 0.05 0.04 0.04 0.04 0.03 0.03 0.02 0.02 0.02 0.03 0.03 0.03 0.05 0.06 0.07 0.07 0.07 0.07 0.05 0.04 0.04 0.04 0.04 0.03 0.03 0.03 0.02 0.02 0.01 0.01
0.02 0.02 0.02 0.02 0.02 0.02 0.02 0.02 0.03 0.03 0.04 0.03 0.02 0.03 0.02 0.02 0.02 0.03 0.02 0.02 0.02 0.02 0.02 0.03 0.03 0.04 0.04 0.05 0.07 0.07 0.06 0.05 0.04 0.04 0.04 0.03 0.03 0.02 0.02 0.01 0.01 0.01 0.01
0.02 0.02 0.03 0.03 0.02 0.02 0.02 0.03 0.04 0.04 0.04 0.03 0.03 0.03 0.03 0.03 0.03 0.03 0.03 0.03 0.03 0.03 0.03 0.04 0.04 0.04 0.04 0.04 0.03 0.03 0.02 0.02 0.02 0.02 0.02 0.02 0.02 0.02 0.01 0.01 0.01 0.01 0.01
0.01 0.01 0.01 0.02 0.02 0.03 0.04 0.04 0.05 0.05 0.05 0.06 0.07 0.06 0.06 0.06 0.06 0.05 0.04 0.04 0.03 0.03 0.03 0.02 0.02 0.02 0.02 0.01 0.01 0.01 0.01 0.01 0.01 0.01 0.01 0.01 0.01 0.01 0.01 0.01 0.00 0.00 0.00
0.01 0.01 0.01 0.01 0.01 0.02 0.03 0.04 0.06 0.06 0.07 0.08 0.09 0.09 0.09 0.08 0.08 0.06 0.06 0.05 0.04 0.02 0.02 0.01 0.01 0.01 0.01 0.01 0.01 0.01 0.01 0.01 0.01 0.01 0.01 0.01 0.01 0.01 0.01 0.00 0.00 0.00 0.00
0.01 0.01 0.01 0.01 0.01 0.02 0.03 0.04 0.04 0.05 0.08 0.08 0.08 0.09 0.08 0.08 0.07 0.07 0.06 0.04 0.03 0.02 0.01 0.01 0.01 0.01 0.01 0.01 0.01 0.01 0.01 0.01 0.01 0.01 0.01 0.01 0.01 0.00 0.00 0.00 0.00 0.00 0.00
0.01 0.01 0.01 0.02 0.03 0.04 0.04 0.04 0.04 0.05 0.06 0.05 0.05 0.06 0.06 0.05 0.05 0.05 0.04 0.03 0.02 0.01 0.01 0.01 0.01 0.01 0.01 0.01 0.01 0.00 0.00 0.00 0.00 0.00 0.00 0.00 0.00 0.00 0.00 0.00 0.00 0.00 0.00
0.02 0.03 0.04 0.04 0.04 0.04 0.03 0.03 0.03 0.03 0.03 0.03 0.02 0.03 0.04 0.04 0.04 0.04 0.04 0.03 0.03 0.02 0.02 0.02 0.02 0.02 0.02 0.02 0.01 0.01 0.00 0.00 0.00 0.00 0.00 0.00 0.00 0.00 0.00 0.00 0.00 0.00 0.00
0.02 0.03 0.03 0.03 0.03 0.03 0.02 0.02 0.02 0.02 0.02 0.02 0.02 0.03 0.03 0.03 0.02 0.03 0.02 0.02 0.02 0.02 0.02 0.02 0.02 0.03 0.03 0.03 0.03 0.02 0.02 0.01 0.01 0.00 0.00 0.00 0.00 0.00 0.00 0.00 0.00 0.00 0.00
0.01 0.01 0.02 0.02 0.02 0.02 0.02 0.02 0.01 0.01 0.01 0.02 0.03 0.03 0.03 0.02 0.02 0.02 0.01 0.01 0.01 0.01 0.01 0.01 0.01 0.01 0.02 0.02 0.02 0.03 0.02 0.02 0.01 0.00 0.00 0.00 0.00 0.00 0.00 0.00 0.00 0.00 0.00
0.01 0.01 0.01 0.01 0.01 0.01 0.01 0.01 0.01 0.01 0.01 0.01 0.01 0.01 0.02 0.01 0.01 0.01 0.01 0.01 0.01 0.01 0.01 0.01 0.01 0.01 0.01 0.01 0.01 0.01 0.02 0.01 0.01 0.00 0.00 0.00 0.00 0.00 0.00 0.00 0.00 0.00 0.00
0.00 0.01 0.01 0.01 0.01 0.01 0.01 0.00 0.01 0.01 0.01 0.01 0.01 0.00 0.01 0.01 0.01 0.01 0.01 0.01 0.01 0.02 0.02 0.02 0.02 0.02 0.02 0.01 0.01 0.01 0.01 0.01 0.01 0.00 0.00 0.00 0.00 0.00 0.00 0.00 0.00 0.00 0.00
0.01 0.01 0.01 0.01 0.01 0.00 0.01 0.01 0.01 0.01 0.01 0.01 0.01 0.01 0.01 0.01 0.01 0.01 0.01 0.01 0.01 0.01 0.01 0.01 0.01 0.01 0.02 0.01 0.01 0.01 0.01 0.01 0.00 0.00 0.00 0.00 0.00 0.00 0.00 0.00 0.00 0.00 0.00
0.00 0.00 0.00 0.00 0.00 0.01 0.01 0.01 0.01 0.01 0.01 0.00 0.00 0.00 0.00 0.00 0.00 0.01 0.01 0.01 0.01 0.01 0.01 0.01 0.01 0.01 0.01 0.01 0.01 0.01 0.01 0.01 0.01 0.01 0.00 0.00 0.00 0.00 0.00 0.00 0.00 0.00 0.00
0.00 0.00 0.00 0.00 0.00 0.00 0.00 0.00 0.00 0.00 0.00 0.00 0.00 0.00 0.00 0.00 0.00 0.00 0.00 0.00 0.00 0.01 0.01 0.01 0.01 0.01 0.01 0.02 0.01 0.01 0.02 0.01 0.01 0.01 0.00 0.00 0.00 0.00 0.00 0.00 0.00 0.00 0.00
MSLP
1014.46 1014.77 1015.12 1015.48 1015.81 1016.06 1016.25 1016.36 1016.44 1016.49 1016.56 1016.66 1016.80 1016.96 1017.15 1017.32 1017.46 1017.55 1017.60 1017.60 1017.59 1017.59 1017.64 1017.75 1017.94 1018.19 1018.50 1018.83 1019.14 1019.41 1019.62 1019.75 1019.82 1019.84 1019.85 1019.88 1019.94 1020.07 1020.27 1020.54 1020.87 1021.25 1021.66
1014.22 1014.48 1014.79 1015.11 1015.39 1015.63 1015.80 1015.92 1016.00 1016.08 1016.17 1016.29 1016.44 1016.62 1016.80 1016.96 1017.09 1017.16 1017.19 1017.17 1017.15 1017.14 1017.18 1017.29 1017.48 1017.74 1018.06 1018.41 1018.75 1019.06 1019.32 1019.51 1019.65 1019.75 1019.84 1019.95 1020.11 1020.33 1020.62 1020.98 1021.40 1021.86 1022.34
1014.02 1014.26 1014.53 1014.80 1015.05 1015.25 1015.41 1015.53 1015.63 1015.73 1015.84 1015.99 1016.16 1016.36 1016.54 1016.70 1016.82 1016.88 1016.88 1016.85 1016.81 1016.78 1016.80 1016.89 1017.06 1017.30 1017.60 1017.93 1018.26 1018.57 1018.84 1019.07 1019.26 1019.43 1019.61 1019.82 1020.09 1020.43 1020.84 1021.33 1021.87 1022.45 1023.04
1013.91 1014.13 1014.37 1014.60 1014.81 1014.99 1015.13 1015.25 1015.37 1015.49 1015.64 1015.82 1016.03 1016.24 1016.44 1016.60 1016.71 1016.75 1016.74 1016.69 1016.62 1016.57 1016.56 1016.61 1016.74 1016.93 1017.18 1017.47 1017.76 1018.04 1018.30 1018.53 1018.75 1018.97 1019.22 1019.53 1019.91 1020.38 1020.94 1021.56 1022.25 1022.96 1023.67
1013.90 1014.12 1014.34 1014.54 1014.71 1014.86 1014.99 1015.12 1015.25 1015.40 1015.59 1015.81 1016.05 1016.29 1016.51 1016.67 1016.78 1016.81 1016.78 1016.71 1016.62 1016.54 1016.49 1016.51 1016.58 1016.72 1016.92 1017.14 1017.37 1017.60 1017.82 1018.04 1018.26 1018.51 1018.82 1019.20 1019.68 1020.26 1020.94 1021.70 1022.51 1023.35 1024.17
1014.02 1014.24 1014.44 1014.62 1014.76 1014.88 1015.00 1015.12 1015.27 1015.46 1015.69 1015.95 1016.23 1016.49 1016.72 1016.90 1017.00 1017.03 1016.99 1016.90 1016.79 1016.69 1016.62 1016.60 1016.64 1016.73 1016.87 1017.04 1017.21 1017.39 1017.56 1017.75 1017.96 1018.21 1018.55 1018.98 1019.52 1020.18 1020.94 1021.79 1022.69 1023.61 1024.51
1014.26 1014.49 1014.68 1014.82 1014.93 1015.02 1015.12 1015.24 1015.41 1015.63 1015.89 1016.18 1016.49 1016.78 1017.03 1017.22 1017.32 1017.35 1017.30 1017.21 1017.10 1017.00 1016.92 1016.89 1016.92 1016.99 1017.10 1017.23 1017.36 1017.50 1017.64 1017.79 1017.97 1018.22 1018.55 1018.99 1019.56 1020.24 1021.03 1021.91 1022.84 1023.79 1024.72
1014.59 1014.82 1014.99 1015.10 1015.17 1015.23 1015.31 1015.43 1015.60 1015.83 1016.12 1016.44 1016.78 1017.09 1017.35 1017.55 1017.66 1017.70 1017.67 1017.59 1017.50 1017.42 1017.37 1017.37 1017.41 1017.50 1017.61 1017.73 1017.85 1017.97 1018.09 1018.22 1018.38 1018.60 1018.92 1019.33 1019.87 1020.53 1021.29 1022.14 1023.03 1023.94 1024.82
1014.97 1015.18 1015.32 1015.39 1015.42 1015.45 1015.50 1015.60 1015.77 1016.01 1016.31 1016.65 1017.00 1017.33 1017.61 1017.83 1017.96 1018.02 1018.02 1017.98 1017.94 1017.91 1017.92 1017.97 1018.07 1018.20 1018.34 1018.49 1018.63 1018.76 1018.88 1019.00 1019.15 1019.34 1019.62 1019.99 1020.47 1021.06 1021.74 1022.49 1023.29 1024.09 1024.88
1015.33 1015.52 1015.61 1015.64 1015.63 1015.62 1015.65 1015.73 1015.89 1016.12 1016.43 1016.77 1017.13 1017.48 1017.77 1018.01 1018.17 1018.27 1018.33 1018.35 1018.38 1018.43 1018.52 1018.65 1018.82 1019.02 1019.22 1019.42 1019.60 1019.75 1019.88 1020.00 1020.14 1020.32 1020.55 1020.86 1021.27 1021.76 1022.33 1022.95 1023.61 1024.27 1024.91
1015.64 1015.78 1015.83 1015.82 1015.77 1015.73 1015.72 1015.79 1015.93 1016.16 1016.46 1016.81 1017.17 1017.53 1017.84 1018.11 1018.32 1018.47 1018.59 1018.70 1018.81 1018.96 1019.13 1019.35 1019.60 1019.87 1020.13 1020.38 1020.60 1020.78 1020.93 1021.06 1021.19 1021.35 1021.54 1021.80 1022.12 1022.52 1022.96 1023.45 1023.95 1024.45 1024.93
1015.86 1015.96 1015.97 1015.92 1015.84 1015.77 1015.75 1015.80 1015.94 1016.16 1016.45 1016.80 1017.17 1017.53 1017.88 1018.18 1018.43 1018.65 1018.85 1019.04 1019.24 1019.48 1019.74 1020.03 1020.35 1020.67 1020.98 1021.26 1021.50 1021.69 1021.85 1021.99 1022.11 1022.25 1022.42 1022.63 1022.88 1023.19 1023.53 1023.89 1024.25 1024.61 1024.94
1016.02 1016.07 1016.04 1015.97 1015.87 1015.80 1015.78 1015.83 1015.96 1016.18 1016.48 1016.83 1017.20 1017.59 1017.95 1018.29 1018.60 1018.88 1019.15 1019.41 1019.69 1020.00 1020.32 1020.66 1021.01 1021.36 1021.68 1021.95 1022.18 1022.37 1022.52 1022.64 1022.75 1022.87 1023.02 1023.20 1023.41 1023.66 1023.92 1024.20 1024.46 1024.70 1024.92
1016.12 1016.14 1016.09 1016.01 1015.93 1015.87 1015.86 1015.93 1016.08 1016.32 1016.62 1016.98 1017.37 1017.76 1018.15 1018.52 1018.87 1019.20 1019.52 1019.85 1020.18 1020.52 1020.87 1021.23 1021.57 1021.89 1022.18 1022.42 1022.61 1022.75 1022.86 1022.96 1023.05 1023.15 1023.28 1023.45 1023.64 1023.87 1024.10 1024.32 1024.53 1024.71 1024.85
1016.22 1016.21 1016.16 1016.10 1016.05 1016.03 1016.07 1016.19 1016.37 1016.63 1016.96 1017.32 1017.72 1018.13 1018.53 1018.92 1019.29 1019.64 1020.00 1020.34 1020.69 1021.04 1021.38 1021.71 1022.01 1022.27 1022.49 1022.65 1022.77 1022.85 1022.90 1022.95 1023.01 1023.10 1023.23 1023.40 1023.60 1023.82 1024.05 1024.27 1024.47 1024.63 1024.75
1016.33 1016.32 1016.30 1016.28 1016.28 1016.33 1016.44 1016.61 1016.85 1017.15 1017.50 1017.88 1018.28 1018.69 1019.09 1019.47 1019.84 1020.19 1020.54 1020.88 1021.20 1021.52 1021.82 1022.08 1022.32 1022.50 1022.63 1022.70 1022.74 1022.74 1022.73 1022.73 1022.76 1022.83 1022.96 1023.13 1023.35 1023.60 1023.85 1024.09 1024.31 1024.49 1024.62
1016.48 1016.49 1016.50 1016.55 1016.63 1016.76 1016.95 1017.20 1017.50 1017.84 1018.22 1018.61 1019.01 1019.40 1019.77 1020.13 1020.46 1020.78 1021.09 1021.38 1021.66 1021.92 1022.15 1022.35 1022.50 1022.60 1022.64 1022.64 1022.60 1022.53 1022.47 1022.43 1022.44 1022.49 1022.62 1022.81 1023.04 1023.32 1023.60 1023.88 1024.13 1024.34 1024.49
1016.65 1016.69 1016.76 1016.87 1017.04 1017.26 1017.54 1017.87 1018.23 1018.63 1019.03 1019.43 1019.81 1020.16 1020.49 1020.79 1021.06 1021.32 1021.55 1021.78 1021.99 1022.18 1022.34 1022.47 1022.56 1022.60 1022.58 1022.53 1022.44 1022.34 1022.25 1022.19 1022.18 1022.23 1022.36 1022.56 1022.81 1023.10 1023.40 1023.71 1023.98 1024.22 1024.40
1016.82 1016.90 1017.03 1017.22 1017.47 1017.78 1018.14 1018.54 1018.97 1019.40 1019.82 1020.20 1020.56 1020.87 1021.13 1021.35 1021.54 1021.71 1021.86 1022.00 1022.14 1022.26 1022.37 1022.45 1022.50 1022.51 1022.48 1022.41 1022.32 1022.23 1022.14 1022.09 1022.09 1022.15 1022.27 1022.47 1022.72 1023.01 1023.32 1023.62 1023.90 1024.15 1024.34
1016.96 1017.08 1017.26 1017.52 1017.84 1018.22 1018.66 1019.12 1019.59 1020.04 1020.47 1020.84 1021.15 1021.40 1021.58 1021.72 1021.82 1021.89 1021.95 1022.00 1022.07 1022.13 1022.20 1022.26 1022.31 1022.33 1022.33 1022.31 1022.27 1022.22 1022.17 1022.16 1022.18 1022.25 1022.38 1022.57 1022.80 1023.07 1023.36 1023.64 1023.90 1024.12 1024.30
1017.06 1017.21 1017.43 1017.73 1018.10 1018.54 1019.02 1019.52 1020.01 1020.48 1020.89 1021.24 1021.50 1021.69 1021.79 1021.84 1021.84 1021.82 1021.80 1021.78 1021.78 1021.81 1021.86 1021.93 1022.01 1022.08 1022.15 1022.21 1022.25 1022.28 1022.31 1022.35 1022.41 1022.51 1022.64 1022.81 1023.01 1023.24 1023.48 1023.72 1023.93 1024.12 1024.26
1017.11 1017.27 1017.52 1017.84 1018.23 1018.69 1019.19 1019.70 1020.20 1020.66 1021.05 1021.36 1021.58 1021.70 1021.74 1021.71 1021.63 1021.53 1021.43 1021.36 1021.32 1021.33 1021.38 1021.48 1021.61 1021.76 1021.92 1022.08 1022.22 1022.35 1022.47 1022.58 1022.69 1022.81 1022.94 1023.09 1023.26 1023.43 1023.61 1023.79 1023.95 1024.08 1024.18
1017.13 1017.29 1017.53 1017.84 1018.23 1018.68 1019.16 1019.66 1020.14 1020.57 1020.94 1021.21 1021.38 1021.45 1021.44 1021.35 1021.22 1021.06 1020.92 1020.80 1020.75 1020.75 1020.83 1020.96 1021.15 1021.38 1021.64 1021.89 1022.14 1022.37 1022.57 1022.75 1022.91 1023.05 1023.18 1023.31 1023.43 1023.55 1023.67 1023.78 1023.88 1023.96 1024.01
1017.15 1017.29 1017.50 1017.78 1018.13 1018.54 1018.98 1019.44 1019.88 1020.27 1020.60 1020.84 1020.97 1021.01 1020.97 1020.85 1020.69 1020.51 1020.34 1020.21 1020.15 1020.16 1020.26 1020.43 1020.67 1020.97 1021.29 1021.63 1021.97 1022.28 1022.55 1022.79 1022.98 1023.14 1023.27 1023.37 1023.45 1023.53 1023.59 1023.65 1023.70 1023.73 1023.74
1017.18 1017.29 1017.45 1017.68 1017.97 1018.32 1018.69 1019.09 1019.47 1019.81 1020.10 1020.31 1020.43 1020.45 1020.40 1020.28 1020.12 1019.94 1019.78 1019.66 1019.60 1019.63 1019.74 1019.93 1020.21 1020.54 1020.92 1021.31 1021.69 1022.05 1022.37 1022.64 1022.86 1023.03 1023.15 1023.24 1023.29 1023.33 1023.36 1023.37 1023.39 1023.39 1023.37
1017.23 1017.30 1017.41 1017.57 1017.79 1018.05 1018.35 1018.66 1018.98 1019.27 1019.52 1019.70 1019.81 1019.84 1019.80 1019.71 1019.57 1019.42 1019.28 1019.18 1019.14 1019.17 1019.29 1019.50 1019.78 1020.13 1020.51 1020.92 1021.32 1021.70 1022.04 1022.33 1022.56 1022.73 1022.84 1022.92 1022.96 1022.97 1022.97 1022.96 1022.95 1022.93 1022.90
Thickness
5761 5758 5754 5752 5750 5747 5745 5743 5742 5740 5738 5737 5736 5735 5734 5733 5732 5731 5730 5728 5726 5724 5724 5723 5721 5720 5720 5719 5718 5716 5712 5707 5698 5692 5689 5685 5682 5679 5675 5673 5669 5666 5661
5760 5756 5752 5750 5747 5745 5743 5741 5739 5737 5736 5735 5733 5732 5731 5730 5729 5728 5726 5724 5722 5720 5720 5718 5717 5716 5713 5712 5712 5710 5707 5703 5696 5687 5682 5677 5673 5670 5667 5664 5661 5657 5652
5759 5754 5750 5747 5744 5742 5740 5738 5736 5734 5732 5731 5730 5728 5727 5726 5725 5724 5722 5720 5718 5717 5715 5712 5711 5710 5707 5707 5705 5704 5701 5698 5693 5685 5677 5671 5667 5663 5658 5655 5651 5647 5643
5756 5751 5747 5744 5741 5739 5737 5735 5733 5731 5729 5727 5726 5725 5724 5723 5721 5720 5718 5715 5713 5711 5709 5707 5705 5704 5703 5701 5700 5697 5694 5690 5685 5679 5672 5665 5659 5654 5651 5647 5641 5636 5632
5753 5748 5744 5742 5739 5736 5733 5731 5728 5727 5725 5723 5722 5720 5719 5718 5717 5715 5712 5710 5707 5705 5702 5700 5698 5696 5694 5693 5694 5691 5688 5683 5678 5672 5665 5659 5652 5647 5643 5639 5633 5627 5621
5749 5745 5741 5738 5735 5732 5730 5727 5724 5722 5720 5718 5716 5715 5714 5712 5708 5706 5705 5704 5701 5698 5695 5692 5689 5687 5684 5682 5680 5679 5677 5675 5670 5665 5659 5651 5645 5640 5634 5630 5624 5621 5614
5746 5742 5738 5735 5732 5728 5726 5723 5719 5716 5714 5712 5711 5709 5707 5703 5700 5699 5697 5696 5694 5690 5687 5684 5681 5678 5676 5674 5670 5667 5664 5661 5658 5656 5649 5643 5637 5632 5627 5621 5616 5613 5607
5741 5738 5734 5731 5727 5723 5721 5717 5714 5712 5709 5706 5704 5702 5699 5695 5692 5690 5689 5688 5686 5682 5679 5676 5673 5670 5667 5665 5662 5657 5652 5648 5646 5642 5638 5632 5628 5623 5619 5615 5608 5601 5596
5737 5733 5730 5727 5723 5719 5715 5712 5709 5706 5703 5699 5696 5694 5691 5686 5683 5682 5681 5680 5676 5673 5670 5667 5664 5661 5656 5655 5652 5647 5642 5636 5632 5628 5624 5620 5615 5611 5608 5606 5601 5597 5590
5734 5730 5726 5722 5718 5714 5710 5706 5703 5700 5696 5693 5689 5686 5683 5679 5674 5673 5673 5673 5668 5664 5659 5655 5652 5649 5645 5644 5643 5639 5633 5628 5623 5618 5613 5608 5605 5600 5597 5595 5594 5590 5585
5730 5726 5721 5717 5713 5709 5705 5701 5697 5693 5689 5685 5681 5678 5674 5670 5666 5664 5664 5665 5662 5658 5652 5646 5640 5636 5634 5633 5632 5629 5624 5620 5615 5611 5606 5601 5596 5592 5587 5582 5579 5577 5574
5723 5719 5715 5711 5707 5703 5698 5694 5690 5687 5682 5678 5675 5670 5666 5662 5658 5655 5654 5653 5652 5648 5643 5637 5630 5625 5623 5620 5618 5614 5611 5610 5607 5603 5597 5592 5587 5581 5575 5569 5564 5560 5556
5715 5711 5706 5703 5700 5695 5691 5687 5683 5680 5678 5674 5670 5666 5660 5655 5648 5645 5642 5640 5638 5636 5631 5624 5618 5614 5611 5608 5604 5602 5601 5600 5597 5593 5586 5580 5574 5568 5563 5557 5552 5548 5544
5708 5703 5699 5695 5691 5686 5683 5680 5678 5674 5671 5667 5664 5660 5654 5648 5643 5638 5634 5629 5626 5623 5619 5611 5607 5604 5602 5597 5594 5593 5592 5589 5586 5581 5574 5569 5563 5558 5554 5550 5546 5542 5538
5700 5695 5692 5689 5684 5677 5672 5667 5666 5662 5661 5659 5657 5653 5649 5643 5635 5631 5629 5624 5621 5616 5610 5606 5602 5598 5595 5591 5587 5584 5580 5577 5573 5569 5564 5560 5555 5550 5545 5540 5535 5534 5530
5692 5688 5685 5681 5675 5669 5663 5655 5648 5647 5645 5644 5642 5641 5635 5630 5623 5619 5615 5611 5607 5604 5603 5601 5596 5592 5589 5584 5580 5575 5571 5567 5563 5559 5554 5550 5545 5540 5536 5531 5527 5525 5521
5685 5681 5677 5673 5667 5661 5656 5651 5644 5635 5631 5629 5627 5625 5622 5616 5612 5608 5604 5600 5596 5594 5595 5593 5588 5584 5580 5576 5572 5568 5563 5558 5553 5549 5545 5540 5535 5531 5527 5523 5519 5515 5512
5676 5671 5668 5664 5659 5653 5648 5644 5640 5634 5628 5621 5614 5611 5608 5604 5601 5597 5593 5590 5587 5586 5587 5584 5580 5575 5572 5567 5563 5559 5554 5549 5544 5540 5536 5531 5527 5523 5519 5515 5511 5506 5504
5666 5663 5659 5654 5649 5644 5639 5635 5630 5625 5620 5614 5607 5600 5596 5592 5589 5586 5584 5587 5586 5582 5579 5575 5571 5567 5563 5558 5554 5549 5545 5540 5535 5531 5527 5522 5518 5514 5511 5508 5504 5493 5493
5655 5650 5648 5644 5640 5635 5630 5626 5622 5617 5612 5606 5602 5596 5590 5586 5584 5580 5578 5579 5578 5574 5570 5566 5562 5558 5553 5549 5543 5539 5535 5530 5525 5523 5519 5514 5510 5507 5503 5499 5497 5494 5490
5646 5640 5635 5634 5631 5626 5622 5618 5614 5609 5604 5599 5595 5590 5584 5585 5582 5577 5574 5572 5570 5567 5563 5559 5554 5549 5545 5539 5536 5531 5527 5523 5519 5515 5511 5507 5503 5500 5496 5493 5490 5487 5484
5636 5631 5628 5625 5621 5616 5613 5609 5604 5600 5597 5592 5587 5581 5575 5577 5576 5572 5568 5565 5562 5559 5555 5551 5547 5543 5538 5533 5529 5524 5521 5517 5512 5507 5503 5500 5496 5492 5489 5486 5484 5481 5478
5625 5622 5617 5614 5610 5604 5602 5599 5596 5593 5589 5586 5581 5577 5572 5570 5568 5565 5562 5559 5555 5551 5547 5543 5539 5535 5530 5525 5521 5517 5514 5510 5505 5500 5496 5493 5489 5486 5483 5480 5476 5474 5473
5616 5612 5608 5604 5600 5597 5594 5591 5588 5585 5582 5578 5575 5571 5567 5563 5561 5558 5555 5551 5547 5543 5539 5535 5531 5527 5522 5518 5514 5510 5506 5501 5497 5493 5488 5486 5483 5479 5477 5473 5471 5469 5467
5607 5604 5601 5597 5594 5591 5587 5584 5581 5578 5575 5572 5568 5565 5561 5558 5555 5551 5547 5543 5539 5536 5532 5527 5524 5520 5515 5510 5506 5503 5498 5492 5488 5485 5480 5478 5475 5472 5470 5468 5465 5463 5461
5598 5595 5592 5589 5586 5583 5581 5578 5574 5571 5568 5565 5562 5558 5554 5551 5548 5545 5541 5537 5533 5529 5524 5521 5516 5512 5508 5504 5499 5494 5489 5484 5480 5476 5473 5471 5469 5467 5465 5463 5461 5459 5457